ZHONGXING-12

Last updated on Thu Nov 21 2024 00:02:42 GMT+0000 (Coordinated Universal Time)

1 39017U 12067A 24325.54172723 -.00000206 00000+0 00000+0 0 9990 2 39017 0.0341 97.0294 0003421 146.6131 98.9306 1.00272145 43759
UTC large
Height (km)
Speed (km/s)
/
Latitude / Longitude
Inclination (degrees)
Orbital Period (minutes)
Azimuth
Elevation
Range (km)
Doppler Factor

Next 0 passes for location: London (51.5072 / 0.1276)

Sorry there are no passes over London.